2019 Bay Area Jr. High District Championships

December 09, 2019


Results By Race Management Systems, Inc.

Overall Finish List - Girls

8th Girls

O'All Place Score Bib No Name Team Time Pace    
1 1 214 Madison Peters East 5:24.5 5:25/M    
2 2 215 Lea Murphy East 5:28.3 5:28/M    
3 3 2364 Dailey Lewis Berry Miller 5:44.1 5:44/M    
4 4 2363 Reese Loyd Berry Miller 5:46.6 5:47/M    
5 5 487 Jostlyn Soto Deepwater 5:55.7 5:56/M    
6 6 218 Alexis LeClere East 6:00.5 6:01/M    
7 7 2365 Ava Curtner Berry Miller 6:01.0 6:01/M    
8 8 2366 Jazlynn Garza Berry Miller 6:03.7 6:04/M    
9 9 290 Peyton Collier Bonnette 6:04.5 6:05/M    
10 10 402 Baker Makezee South 6:06.4 6:06/M    
11 11 2328 Cassidy Arevalo Lomax 6:09.0 6:09/M    
12 12 344 Madison Murray Fairmont 6:10.2 6:10/M    
13 13 2367 Meredith Beeson Berry Miller 6:10.4 6:10/M    
14 14 2187 Kerbi Bowyer Deer Park 6:12.0 6:12/M    
15 15 2195 Addie Paduh Deer Park 6:12.2 6:12/M    
16 16 2194 Avery Longrigg Deer Park 6:14.8 6:15/M    
17 17 217 Ella Johnson East 6:16.5 6:17/M    
18 18 2326 Isabella Cortez Lomax 6:18.9 6:19/M    
19 19 399 Liscano Reena South 6:20.1 6:20/M    
20 20 2374 Cara Gary Berry Miller 6:20.7 6:21/M    
21 21 2370 Sarah Haggerty Berry Miller 6:20.9 6:21/M    
22 22 2274 Penelope Rios La Porte 6:21.6 6:22/M    
23 23 489 Alessandra Aguilar Deepwater 6:22.1 6:22/M    
24 24 301 Kaylee Spradling Bonnette 6:22.6 6:23/M    
25 (> 7) 2368 Tanishka Ganiash Berry Miller 6:22.9 6:23/M    
26 25 219 Jade Arrends East 6:23.7 6:24/M    
27 (> 7) 2375 Bryleigh Bland Berry Miller 6:27.8 6:28/M    
28 26 2177 Serena Castillo West 6:28.8 6:29/M    
29 27 337 Mia Battistic Fairmont 6:29.2 6:29/M    
30 28 2323 Makenzie Prigmore Lomax 6:30.1 6:30/M    
31 29 2192 Mia Haines Deer Park 6:30.4 6:30/M    
32 (> 7) 2369 Allyson Perez Berry Miller 6:30.6 6:31/M    
33 30 221 Kelsey Martin East 6:31.4 6:31/M    
34 31 488 Avery Daigle Deepwater 6:32.2 6:32/M    
35 (> 7) 2373 Cara Pitman Berry Miller 6:32.4 6:32/M    
36 32 2319 Ella Jessen Lomax 6:33.2 6:33/M    
37 33 2180 Kaytlynn Norman West 6:33.4 6:33/M    
38 34 2193 Cadence Lippe Deer Park 6:33.7 6:34/M    
39 35 2325 Trinity Chavez Lomax 6:33.9 6:34/M    
40 36 2184 Aliecia Zellner-Spann West 6:34.7 6:35/M    
41 37 2275 Valerie Engesveen La Porte 6:35.3 6:35/M    
42 (> 7) 2371 Emily Mullen Berry Miller 6:35.4 6:35/M    
43 (> 7) 2372 Coco Calleja Berry Miller 6:39.5 6:40/M    
44 38 343 Cayley Hanson Fairmont 6:40.5 6:41/M    
45 (> 7) 2377 Teagan McSpadden Berry Miller 6:41.0 6:41/M    
46 39 220 Jenna Branstetter East 6:41.2 6:41/M    
47 (> 7) 2376 Lauren Cross Berry Miller 6:41.7 6:42/M    
48 40 2179 Gabrielle Medina West 6:42.0 6:42/M    
49 41 2183 Aliza Solis West 6:42.7 6:43/M    
50 42 348 Kylie Wilson Fairmont 6:42.9 6:43/M    
51 43 2322 Mackenzie Traylor Lomax 6:44.4 6:44/M    
52 44 2196 Kailey Pineda Deer Park 6:45.2 6:45/M    
53 45 2190 Berkeley Fowler Deer Park 6:45.6 6:46/M    
54 (> 7) 2198 Belen Sanchez Deer Park 6:45.9 6:46/M    
55 46 347 Faby Torres Fairmont 6:46.1 6:46/M    
56 47 397 Rogers Kaia South 6:46.3 6:46/M    
57 (> 7) 2188 Annalise Cable Deer Park 6:47.2 6:47/M    
58 48 2324 Natalie Munoz Lomax 6:47.9 6:48/M    
59 (> 7) 2185 Tobie Addison Deer Park 6:50.1 6:50/M    
60 49 400 Segers Anslee South 6:52.0 6:52/M    
61 50 398 Welch Avery South 6:53.0 6:53/M    
62 51 287 Ariana Baez Bonnette 6:53.2 6:53/M    
63 (> 7) 2199 Makayla Willis Deer Park 6:53.5 6:54/M    
64 (> 7) 223 Deylah Torres East 6:54.0 6:54/M    
65 52 2280 JaMya Hebert La Porte 6:54.4 6:54/M    
66 (> 7) 2197 Maddie Plummer Deer Park 6:55.3 6:55/M    
67 53 292 Emilie Gonzalez Bonnette 6:57.3 6:57/M    
68 54 300 Aubry Solis Bonnette 6:57.5 6:58/M    
69 55 289 Johanna Cavazos Bonnette 6:58.0 6:58/M    
70 56 2182 Maddie Rodriquez West 6:58.3 6:58/M    
71 (> 7) 2189 Bella Fields Deer Park 6:58.6 6:59/M    
72 (> 7) 2186 Mallory Bates Deer Park 7:01.1 7:01/M    
73 57 2279 Audrey Wilson La Porte 7:01.8 7:02/M    
74 (> 7) 2327 Isabella Garza Lomax 7:04.9 7:05/M    
75 (> 7) 2191 Emerie Garcia Deer Park 7:05.3 7:05/M    
76 58 2278 Jordan Johnson La Porte 7:06.0 7:06/M    
77 59 341 Grace Cherry Fairmont 7:06.3 7:06/M    
78 60 492 Yulissa Guerrero Deepwater 7:06.9 7:07/M    
79 (> 7) 2321 Jessica Reyes Lomax 7:07.7 7:08/M    
80 61 299 Gracie Rodriguez Bonnette 7:08.1 7:08/M    
81 62 338 Tatum Busch Fairmont 7:08.3 7:08/M    
82 (> 7) 288 Jalyssia Cantu Bonnette 7:08.6 7:09/M    
83 63 2276 Elaina Whitacre La Porte 7:09.3 7:09/M    
84 (> 7) 2330 Elyssa Thompson Lomax 7:09.5 7:10/M    
85 (> 7) 295 Adamaris Longoria Bonnette 7:09.8 7:10/M    
86 64 2181 Mackenzie Rainey West 7:10.9 7:11/M    
87 65 490 Cynthia Carrizales Deepwater 7:12.2 7:12/M    
88 66 2284 Madison Moore La Porte 7:17.5 7:18/M    
89 (> 7) 293 Ally Harper Bonnette 7:17.9 7:18/M    
90 (> 7) 294 Ariana Jimenez Bonnette 7:20.0 7:20/M    
91 (> 7) 297 Kaitlin Martiniez Bonnette 7:20.2 7:20/M    
92 (> 7) 222 Roxanne Hernandez East 7:20.5 7:21/M    
93 (> 7) 298 Michelle Nieman Bonnette 7:20.8 7:21/M    
94 (> 7) 2331 Sarah Green Lomax 7:21.1 7:21/M    
95 (> 7) 2329 Madalyn Foose Lomax 7:21.4 7:21/M    
96 67 2161 Nevaeh Perez Deepwater 7:23.1 7:23/M    
97 (> 7) 2285 Gilma Martinez La Porte 7:23.3 7:23/M    
98 (> 7) 340 Kylin Chavez Fairmont 7:30.8 7:31/M    
99 (> 7) 2320 Eledith Para Lomax 7:34.5 7:35/M    
100 (> 7) 2318 Aly Frias Lomax 7:38.0 7:38/M    
O'All Place Score Bib No Name Team Time Pace    
101 (> 7) 346 Olivia Trautmann Fairmont 7:38.9 7:39/M    
102 (> 7) 342 Jocelyn Esquivel Fairmont 7:42.5 7:43/M    
103 68 494 Joaliz Bustos Deepwater 7:45.5 7:46/M    
104 (> 7) 2332 Xochilt Hernandez Lomax 7:54.5 7:55/M    
105 (> 7) 496 Jocelyn Ortiz Deepwater 7:56.5 7:57/M    
106 (> 7) 2178 Nyla Banks West 8:01.6 8:02/M    
107 (> 7) 2282 Ashley Gallardo La Porte 8:03.1 8:03/M    
108 (> 7) 499 Mia Duran Deepwater 8:09.3 8:09/M    
109 (> 7) 2287 Lexie Sanchez La Porte 8:10.8 8:11/M    
110 (> 7) 500 Anastasya McConniel Deepwater 8:12.2 8:12/M    
111 (> 7) 345 Maisen Price Fairmont 8:16.5 8:17/M    
112 (> 7) 495 Isabel Zarco Deepwater 8:19.1 8:19/M    
113 (> 7) 497 Nadia Granados Deepwater 8:20.7 8:21/M    
114 (> 7) 339 Gabriella Celestino Fairmont 8:21.5 8:22/M    

Final Team Results - Girls

8th Girls

Team - Berry Miller

Finish Position - 1

Team Score (places): 35

Team Score (times): 29:46.1

Ave Time:5:57.2

Pos Bib No Name   O'All Place Cum Place Time Cum Time Time Back
1 2364 Dailey Lewis   3 3 5:44.1 5:44.1 0:19.6
2 2363 Reese Loyd   4 7 5:46.6 11:30.8 0:22.1
3 2365 Ava Curtner   7 14 6:01.0 17:31.8 0:36.5
4 2366 Jazlynn Garza   8 22 6:03.7 23:35.6 0:39.2
5 2367 Meredith Beeson   13 35 6:10.4 29:46.1 0:45.9
6 2374 Cara Gary   (20) (55) 6:20.7 36:06.8 0:56.1
7 2370 Sarah Haggerty   (21) (76) 6:20.9 42:27.7 0:56.3
8 2368 Tanishka Ganiash   More Than 7   6:22.9 48:50.6 0:58.3
9 2375 Bryleigh Bland   More Than 7   6:27.8 55:18.4 1:03.2
10 2369 Allyson Perez   More Than 7   6:30.6 1:01:49.0 1:06.0
11 2373 Cara Pitman   More Than 7   6:32.4 1:08:21.5 1:07.9
12 2371 Emily Mullen   More Than 7   6:35.4 1:14:57.0 1:10.9
13 2372 Coco Calleja   More Than 7   6:39.5 1:21:36.5 1:15.0
14 2377 Teagan McSpadden   More Than 7   6:41.0 1:28:17.6 1:16.5
15 2376 Lauren Cross   More Than 7   6:41.7 1:34:59.3 1:17.2

Team - East

Finish Position - 2

Team Score (places): 51

Team Score (times): 29:33.7

Ave Time:5:54.7

Pos Bib No Name   O'All Place Cum Place Time Cum Time Time Back
1 214 Madison Peters   1 1 5:24.5 5:24.5 0:00.0
2 215 Lea Murphy   2 3 5:28.3 10:52.9 0:03.8
3 218 Alexis LeClere   6 9 6:00.5 16:53.4 0:36.0
4 217 Ella Johnson   17 26 6:16.5 23:09.9 0:51.9
5 219 Jade Arrends   25 51 6:23.7 29:33.7 0:59.2
6 221 Kelsey Martin   (30) (81) 6:31.4 36:05.2 1:06.9
7 220 Jenna Branstetter   (39) (120) 6:41.2 42:46.4 1:16.7
8 223 Deylah Torres   More Than 7   6:54.0 49:40.5 1:29.5
9 222 Roxanne Hernandez   More Than 7   7:20.5 57:01.0 1:56.0

Team - Deer Park

Finish Position - 3

Team Score (places): 108

Team Score (times): 31:43.2

Ave Time:6:20.6

Pos Bib No Name   O'All Place Cum Place Time Cum Time Time Back
1 2187 Kerbi Bowyer   14 14 6:12.0 6:12.0 0:47.4
2 2195 Addie Paduh   15 29 6:12.2 12:24.2 0:47.7
3 2194 Avery Longrigg   16 45 6:14.8 18:39.1 0:50.3
4 2192 Mia Haines   29 74 6:30.4 25:09.5 1:05.8
5 2193 Cadence Lippe   34 108 6:33.7 31:43.2 1:09.2
6 2196 Kailey Pineda   (44) (152) 6:45.2 38:28.4 1:20.6
7 2190 Berkeley Fowler   (45) (197) 6:45.6 45:14.0 1:21.1
8 2198 Belen Sanchez   More Than 7   6:45.9 52:00.0 1:21.3
9 2188 Annalise Cable   More Than 7   6:47.2 58:47.2 1:22.7
10 2185 Tobie Addison   More Than 7   6:50.1 1:05:37.4 1:25.5
11 2199 Makayla Willis   More Than 7   6:53.5 1:12:30.9 1:29.0
12 2197 Maddie Plummer   More Than 7   6:55.3 1:19:26.2 1:30.7
13 2189 Bella Fields   More Than 7   6:58.6 1:26:24.9 1:34.1
14 2186 Mallory Bates   More Than 7   7:01.1 1:33:26.1 1:36.6
15 2191 Emerie Garcia   More Than 7   7:05.3 1:40:31.4 1:40.8

Team - Lomax

Finish Position - 4

Team Score (places): 124

Team Score (times): 32:05.2

Ave Time:6:25.0

Pos Bib No Name   O'All Place Cum Place Time Cum Time Time Back
1 2328 Cassidy Arevalo   11 11 6:09.0 6:09.0 0:44.5
2 2326 Isabella Cortez   18 29 6:18.9 12:28.0 0:54.4
3 2323 Makenzie Prigmore   28 57 6:30.1 18:58.1 1:05.5
4 2319 Ella Jessen   32 89 6:33.2 25:31.3 1:08.6
5 2325 Trinity Chavez   35 124 6:33.9 32:05.2 1:09.3
6 2322 Mackenzie Traylor   (43) (167) 6:44.4 38:49.7 1:19.9
7 2324 Natalie Munoz   (48) (215) 6:47.9 45:37.6 1:23.4
8 2327 Isabella Garza   More Than 7   7:04.9 52:42.5 1:40.3
9 2321 Jessica Reyes   More Than 7   7:07.7 59:50.3 1:43.2
10 2330 Elyssa Thompson   More Than 7   7:09.5 1:06:59.9 1:45.0
11 2331 Sarah Green   More Than 7   7:21.1 1:14:21.0 1:56.5
12 2329 Madalyn Foose   More Than 7   7:21.4 1:21:42.4 1:56.8
13 2320 Eledith Para   More Than 7   7:34.5 1:29:17.0 2:10.0
14 2318 Aly Frias   More Than 7   7:38.0 1:36:55.0 2:13.5
15 2332 Xochilt Hernandez   More Than 7   7:54.5 1:44:49.6 2:30.0

Team - Fairmont

Finish Position - 5

Team Score (places): 165

Team Score (times): 32:49.2

Ave Time:6:33.8

Pos Bib No Name   O'All Place Cum Place Time Cum Time Time Back
1 344 Madison Murray   12 12 6:10.2 6:10.2 0:45.7
2 337 Mia Battistic   27 39 6:29.2 12:39.5 1:04.7
3 343 Cayley Hanson   38 77 6:40.5 19:20.0 1:16.0
4 348 Kylie Wilson   42 119 6:42.9 26:03.0 1:18.4
5 347 Faby Torres   46 165 6:46.1 32:49.2 1:21.6
6 341 Grace Cherry   (59) (224) 7:06.3 39:55.5 1:41.8
7 338 Tatum Busch   (62) (286) 7:08.3 47:03.9 1:43.8
8 340 Kylin Chavez   More Than 7   7:30.8 54:34.7 2:06.3
9 346 Olivia Trautmann   More Than 7   7:38.9 1:02:13.7 2:14.4
10 342 Jocelyn Esquivel   More Than 7   7:42.5 1:09:56.2 2:18.0
11 345 Maisen Price   More Than 7   8:16.5 1:18:12.7 2:51.9
12 339 Gabriella Celestino   More Than 7   8:21.5 1:26:34.3 2:57.0

Team - South

Finish Position - 6

Team Score (places): 175

Team Score (times): 32:58.0

Ave Time:6:35.6

Pos Bib No Name   O'All Place Cum Place Time Cum Time Time Back
1 402 Baker Makezee   10 10 6:06.4 6:06.4 0:41.8
2 399 Liscano Reena   19 29 6:20.1 12:26.5 0:55.6
3 397 Rogers Kaia   47 76 6:46.3 19:12.9 1:21.8
4 400 Segers Anslee   49 125 6:52.0 26:04.9 1:27.5
5 398 Welch Avery   50 175 6:53.0 32:58.0 1:28.4

Team - West

Finish Position - 7

Team Score (places): 176

Team Score (times): 33:01.8

Ave Time:6:36.3

Pos Bib No Name   O'All Place Cum Place Time Cum Time Time Back
1 2177 Serena Castillo   26 26 6:28.8 6:28.8 1:04.3
2 2180 Kaytlynn Norman   33 59 6:33.4 13:02.3 1:08.9
3 2184 Aliecia Zellner-Spann   36 95 6:34.7 19:37.0 1:10.2
4 2179 Gabrielle Medina   40 135 6:42.0 26:19.1 1:17.5
5 2183 Aliza Solis   41 176 6:42.7 33:01.8 1:18.1
6 2182 Maddie Rodriquez   (56) (232) 6:58.3 40:00.1 1:33.7
7 2181 Mackenzie Rainey   (64) (296) 7:10.9 47:11.1 1:46.4
8 2178 Nyla Banks   More Than 7   8:01.6 55:12.8 2:37.1

Team - Deepwater

Finish Position - 8

Team Score (places): 184

Team Score (times): 33:09.3

Ave Time:6:37.8

Pos Bib No Name   O'All Place Cum Place Time Cum Time Time Back
1 487 Jostlyn Soto   5 5 5:55.7 5:55.7 0:31.2
2 489 Alessandra Aguilar   23 28 6:22.1 12:17.9 0:57.6
3 488 Avery Daigle   31 59 6:32.2 18:50.1 1:07.7
4 492 Yulissa Guerrero   60 119 7:06.9 25:57.1 1:42.4
5 490 Cynthia Carrizales   65 184 7:12.2 33:09.3 1:47.7
6 2161 Nevaeh Perez   (67) (251) 7:23.1 40:32.5 1:58.6
7 494 Joaliz Bustos   (68) (319) 7:45.5 48:18.0 2:21.0
8 496 Jocelyn Ortiz   More Than 7   7:56.5 56:14.5 2:31.9
9 499 Mia Duran   More Than 7   8:09.3 1:04:23.9 2:44.8
10 500 Anastasya McConniel   More Than 7   8:12.2 1:12:36.1 2:47.7
11 495 Isabel Zarco   More Than 7   8:19.1 1:20:55.2 2:54.5
12 497 Nadia Granados   More Than 7   8:20.7 1:29:16.0 2:56.2

Team - Bonnette

Finish Position - 9

Team Score (places): 191

Team Score (times): 33:15.3

Ave Time:6:39.0

Pos Bib No Name   O'All Place Cum Place Time Cum Time Time Back
1 290 Peyton Collier   9 9 6:04.5 6:04.5 0:39.9
2 301 Kaylee Spradling   24 33 6:22.6 12:27.1 0:58.1
3 287 Ariana Baez   51 84 6:53.2 19:20.4 1:28.7
4 292 Emilie Gonzalez   53 137 6:57.3 26:17.8 1:32.8
5 300 Aubry Solis   54 191 6:57.5 33:15.3 1:33.0
6 289 Johanna Cavazos   (55) (246) 6:58.0 40:13.3 1:33.4
7 299 Gracie Rodriguez   (61) (307) 7:08.1 47:21.4 1:43.5
8 288 Jalyssia Cantu   More Than 7   7:08.6 54:30.1 1:44.1
9 295 Adamaris Longoria   More Than 7   7:09.8 1:01:39.9 1:45.2
10 293 Ally Harper   More Than 7   7:17.9 1:08:57.9 1:53.4
11 294 Ariana Jimenez   More Than 7   7:20.0 1:16:17.9 1:55.4
12 297 Kaitlin Martiniez   More Than 7   7:20.2 1:23:38.2 1:55.7
13 298 Michelle Nieman   More Than 7   7:20.8 1:30:59.1 1:56.3

Team - La Porte

Finish Position - 10

Team Score (places): 226

Team Score (times): 33:59.2

Ave Time:6:47.8

Pos Bib No Name   O'All Place Cum Place Time Cum Time Time Back
1 2274 Penelope Rios   22 22 6:21.6 6:21.6 0:57.1
2 2275 Valerie Engesveen   37 59 6:35.3 12:56.9 1:10.7
3 2280 JaMya Hebert   52 111 6:54.4 19:51.4 1:29.9
4 2279 Audrey Wilson   57 168 7:01.8 26:53.2 1:37.2
5 2278 Jordan Johnson   58 226 7:06.0 33:59.2 1:41.4
6 2276 Elaina Whitacre   (63) (289) 7:09.3 41:08.6 1:44.8
7 2284 Madison Moore   (66) (355) 7:17.5 48:26.1 1:53.0
8 2285 Gilma Martinez   More Than 7   7:23.3 55:49.5 1:58.8
9 2282 Ashley Gallardo   More Than 7   8:03.1 1:03:52.7 2:38.6
10 2287 Lexie Sanchez   More Than 7   8:10.8 1:12:03.5 2:46.2